Laconia, New Hampshire, United States (03246)
Lat: 43.53N, Lon: 71.47W
Wx Zone: NHZ009
Local Info
Past Weather Observations for Wednesday, June 24, 2015

NOTE: This archive is for the closest National Weather Service station to Laconia. Information may differ from the station used for current weather conditions.

Click here for Long-term Archive

Time Weather Temperature Dewpoint Humidity Pressure Winds Precip Visibility
23:55
Overcast
64°F / 18°C 46°F / 8°C 52% 30.01 in
(1016 mb)
NW 3.5 mph
(NW 6 kph)
- 10SM
23:35
Overcast
64°F / 18°C 48°F / 9°C 56% 30.01 in
(1016 mb)
W 4.6 mph
(W 7 kph)
- 10SM
23:15
Overcast
64°F / 18°C 46°F / 8°C 52% 30.01 in
(1016 mb)
W 6.9 mph
(W 11 kph)
- 10SM
22:55
Overcast
64°F / 18°C 46°F / 8°C 52% 30.01 in
(1016 mb)
SSW 5.8 mph
(SSW 9 kph)
- 10SM
22:35
Mostly Cloudy
64°F / 18°C 46°F / 8°C 52% 30.01 in
(1016 mb)
NW 5.8 mph
(NW 9 kph)
- 10SM
22:15
Partly Cloudy
59°F / 15°C 50°F / 10°C 72% 30.01 in
(1016 mb)
NW 5.8 mph
(NW 9 kph)
- 10SM
21:55
Clear
61°F / 16°C 48°F / 9°C 63% 29.98 in
(1015 mb)
Calm - 10SM
21:35
Clear
59°F / 15°C 50°F / 10°C 72% 29.98 in
(1015 mb)
Calm - 10SM
21:15
Clear
59°F / 15°C 50°F / 10°C 72% 29.98 in
(1015 mb)
Calm - 10SM
20:55
Clear
63°F / 17°C 48°F / 9°C 59% 29.98 in
(1015 mb)
Calm - 10SM
20:35
Clear
63°F / 17°C 48°F / 9°C 59% 29.98 in
(1015 mb)
Calm - 10SM
20:15
Clear
64°F / 18°C 50°F / 10°C 60% 29.98 in
(1015 mb)
W 3.5 mph
(W 6 kph)
- 10SM
19:55
Clear
68°F / 20°C 46°F / 8°C 46% 29.98 in
(1015 mb)
W 3.5 mph
(W 6 kph)
- 10SM
19:35
Clear
68°F / 20°C 48°F / 9°C 49% 29.95 in
(1014 mb)
W 5.8 mph
(W 9 kph)
- 10SM
19:15
Clear
70°F / 21°C 46°F / 8°C 43% 29.95 in
(1014 mb)
Calm - 10SM
18:55
Clear
72°F / 22°C 45°F / 7°C 38% 29.95 in
(1014 mb)
NW 3.5 mph
(NW 6 kph)
- 10SM
18:35
Clear
72°F / 22°C 45°F / 7°C 38% 29.95 in
(1014 mb)
Calm - 10SM
18:15
Clear
72°F / 22°C 43°F / 6°C 36% 29.95 in
(1014 mb)
SSW 3.5 mph
(SSW 6 kph)
- 10SM
17:55
Clear
73°F / 23°C 41°F / 5°C 31% 29.95 in
(1014 mb)
W 5.8 mph
(W 9 kph)
- 10SM
17:35
Clear
73°F / 23°C 41°F / 5°C 31% 29.95 in
(1014 mb)
NW 4.6 mph
(NW 7 kph)
- 10SM
17:15
Clear
73°F / 23°C 41°F / 5°C 31% 29.95 in
(1014 mb)
W 6.9 mph
(W 11 kph)
- 10SM
16:55
Clear
73°F / 23°C 39°F / 4°C 29% 29.95 in
(1014 mb)
WNW 5.8 mph
(WNW 9 kph)
- 10SM
16:35
Clear
75°F / 24°C 39°F / 4°C 27% 29.95 in
(1014 mb)
WNW 10.4 mph
(WNW 17 kph)
- 10SM
16:15
Clear
77°F / 25°C 39°F / 4°C 26% 29.95 in
(1014 mb)
W 11.5 mph
(W 19 kph)
- 10SM
15:55
Clear
77°F / 25°C 43°F / 6°C 30% 29.92 in
(1013 mb)
W 9.2 mph
(W 15 kph)
- 10SM
15:35
Clear
77°F / 25°C 43°F / 6°C 30% 29.92 in
(1013 mb)
NW 10.4 mph
(NW 17 kph)
- 10SM
15:15
Clear
77°F / 25°C 43°F / 6°C 30% 29.92 in
(1013 mb)
NW 11.5 mph
(NW 19 kph)
- 10SM
14:55
Partly Cloudy
79°F / 26°C 45°F / 7°C 30% 29.92 in
(1013 mb)
NW 12.7 mph
(NW 20 kph)
- 10SM
14:35
Clear
77°F / 25°C 45°F / 7°C 32% 29.92 in
(1013 mb)
NW 6.9 mph
(NW 11 kph)
- 10SM
14:15
Clear
77°F / 25°C 43°F / 6°C 30% 29.92 in
(1013 mb)
W 10.4 mph
(W 17 kph)
- 10SM
13:55
Clear
77°F / 25°C 43°F / 6°C 30% 29.95 in
(1014 mb)
WNW 12.7 mph
(WNW 20 kph)
- 10SM
13:35
Clear
77°F / 25°C 45°F / 7°C 32% 29.92 in
(1013 mb)
W 11.5 mph
(W 19 kph)
- 10SM
13:15
Clear
77°F / 25°C 45°F / 7°C 32% 29.92 in
(1013 mb)
NW 13.8 mph
(NW 22 kph)
- 10SM
12:55
Clear
77°F / 25°C 45°F / 7°C 32% 29.92 in
(1013 mb)
NW 12.7 mph
(NW 20 kph)
- 10SM
12:35
Clear
75°F / 24°C 45°F / 7°C 34% 29.92 in
(1013 mb)
NNW 9.2 mph
(NNW 15 kph)
- 10SM
12:15
Clear
75°F / 24°C 45°F / 7°C 34% 29.92 in
(1013 mb)
W 10.4 mph
(W 17 kph)
- 9SM
11:55
Clear
75°F / 24°C 46°F / 8°C 36% 29.92 in
(1013 mb)
W 11.5 mph
(W 19 kph)
- 10SM
11:35
Clear
75°F / 24°C 48°F / 9°C 39% 29.92 in
(1013 mb)
SSW 12.7 mph
(SSW 20 kph)
- 10SM
11:15
Clear
73°F / 23°C 46°F / 8°C 38% 29.95 in
(1014 mb)
SSW 13.8 mph
(SSW 22 kph)
- 10SM
10:55
Clear
73°F / 23°C 48°F / 9°C 41% 29.95 in
(1014 mb)
SSW 12.7 mph
(SSW 20 kph)
- 10SM
10:35
Clear
73°F / 23°C 48°F / 9°C 41% 29.95 in
(1014 mb)
SSW 10.4 mph
(SSW 17 kph)
- 10SM
10:15
Clear
73°F / 23°C 48°F / 9°C 41% 29.95 in
(1014 mb)
SSW 11.5 mph
(SSW 19 kph)
- 10SM
09:55
Clear
73°F / 23°C 50°F / 10°C 44% 29.95 in
(1014 mb)
NW 9.2 mph
(NW 15 kph)
- 10SM
09:35
Clear
72°F / 22°C 50°F / 10°C 47% 29.95 in
(1014 mb)
SSW 10.4 mph
(SSW 17 kph)
- 10SM
09:15
Clear
70°F / 21°C 50°F / 10°C 50% 29.95 in
(1014 mb)
Calm - 10SM
08:55
Partly Cloudy
70°F / 21°C 52°F / 11°C 53% 29.95 in
(1014 mb)
WNW 12.7 mph
(WNW 20 kph)
- 10SM
08:35
Partly Cloudy
70°F / 21°C 52°F / 11°C 53% 29.95 in
(1014 mb)
NW 9.2 mph
(NW 15 kph)
- 10SM
08:15
Clear
70°F / 21°C 52°F / 11°C 53% 29.95 in
(1014 mb)
NW 12.7 mph
(NW 20 kph)
- 10SM
07:55
Clear
70°F / 21°C 52°F / 11°C 53% 29.92 in
(1013 mb)
NW 11.5 mph
(NW 19 kph)
- 10SM
07:35
Clear
70°F / 21°C 52°F / 11°C 53% 29.92 in
(1013 mb)
NW 11.5 mph
(NW 19 kph)
- 10SM
07:15
Clear
68°F / 20°C 52°F / 11°C 56% 29.92 in
(1013 mb)
WNW 9.2 mph
(WNW 15 kph)
- 10SM
06:55
Clear
68°F / 20°C 52°F / 11°C 56% 29.92 in
(1013 mb)
NW 9.2 mph
(NW 15 kph)
- 10SM
06:35
Clear
66°F / 19°C 52°F / 11°C 60% 29.89 in
(1012 mb)
NW 12.7 mph
(NW 20 kph)
- 10SM
06:15
Clear
66°F / 19°C 52°F / 11°C 60% 29.89 in
(1012 mb)
W 10.4 mph
(W 17 kph)
- 10SM
05:55
Clear
66°F / 19°C 52°F / 11°C 60% 29.86 in
(1011 mb)
W 9.2 mph
(W 15 kph)
- 10SM
05:35
Clear
64°F / 18°C 52°F / 11°C 64% 29.86 in
(1011 mb)
W 8.1 mph
(W 13 kph)
- 10SM
05:15
Clear
64°F / 18°C 54°F / 12°C 68% 29.83 in
(1010 mb)
SSW 5.8 mph
(SSW 9 kph)
- 10SM
04:55
Clear
64°F / 18°C 54°F / 12°C 68% 29.83 in
(1010 mb)
SSW 8.1 mph
(SSW 13 kph)
- 10SM
04:35
Clear
64°F / 18°C 54°F / 12°C 68% 29.83 in
(1010 mb)
SSW 6.9 mph
(SSW 11 kph)
- 10SM
04:15
Clear
64°F / 18°C 52°F / 11°C 64% 29.83 in
(1010 mb)
W 8.1 mph
(W 13 kph)
- 10SM
03:55
Clear
63°F / 17°C 54°F / 12°C 73% 29.83 in
(1010 mb)
W 8.1 mph
(W 13 kph)
- 10SM
03:35
Clear
63°F / 17°C 54°F / 12°C 73% 29.83 in
(1010 mb)
SSW 5.8 mph
(SSW 9 kph)
- 10SM
03:15
Clear
64°F / 18°C 54°F / 12°C 68% 29.8 in
(1009 mb)
SW 6.9 mph
(SW 11 kph)
- 10SM
02:55
Clear
64°F / 18°C 54°F / 12°C 68% 29.8 in
(1009 mb)
SW 5.8 mph
(SW 9 kph)
- 10SM
02:35
Clear
64°F / 18°C 54°F / 12°C 68% 29.8 in
(1009 mb)
SW 6.9 mph
(SW 11 kph)
- 10SM
02:15
Clear
66°F / 19°C 54°F / 12°C 64% 29.8 in
(1009 mb)
SW 5.8 mph
(SW 9 kph)
- 10SM
01:55
Clear
66°F / 19°C 54°F / 12°C 64% 29.8 in
(1009 mb)
SSW 5.8 mph
(SSW 9 kph)
- 10SM
01:35
Clear
66°F / 19°C 54°F / 12°C 64% 29.8 in
(1009 mb)
W 5.8 mph
(W 9 kph)
- 10SM
01:15
Clear
66°F / 19°C 54°F / 12°C 64% 29.8 in
(1009 mb)
SSW 5.8 mph
(SSW 9 kph)
- 10SM
00:55
Clear
66°F / 19°C 54°F / 12°C 64% 29.8 in
(1009 mb)
SSW 6.9 mph
(SSW 11 kph)
- 10SM
00:35
Clear
66°F / 19°C 54°F / 12°C 64% 29.8 in
(1009 mb)
SSW 5.8 mph
(SSW 9 kph)
- 10SM
00:15
Clear
66°F / 19°C 54°F / 12°C 64% 29.8 in
(1009 mb)
SSW 4.6 mph
(SSW 7 kph)
- 10SM
Time Weather Temperature Dewpoint Humidity Pressure Winds Precip Visibility


Weather for websites

WeatherForYou.com, LLC is not responsible for any damages or problems caused by this service. Current weather conditions are obtained from the closest station including government and personal stations which may have varying degrees of accuracy. Weather forecasts are derived from the NOAA NDFD. Like all things, this site belongs to Jesus Christ... He just trusts us to maintain it. If you have any questions or comments email webmaster@weatherforyou.com

Copyright © 2015, WeatherForYou.com LLC. All rights reserved.